FENGYUN 1C DEB

Satellite information

Favourite Embed

Satellite Type and Status

DEBRISIN ORBIT

Key statistics

Satellite FENGYUN 1C DEB at a glance.

Uptime

9495

Days in orbit

Revolutions

≈ 14.1

Per day

Orbit

SSO

Sun Synchronous Orbit

Inclination

98.9

Latest

Satellite identification and parameters

Extended collection of information and parameters for FENGYUN 1C DEB.

Object identification

Identified? True

Debris? True

Object name: FENGYUN 1C DEB

International designator: 1999-025EQJ

Object number (NORAD): 38137

Object ID (CCSDS): 38137

Country: PEOPLES REPUBLIC OF CHINA (PRC)

Current information (Y/N): Y

RCS size: SMALL

Orbital parameters

Period: 102.423 minutes

Inclination: 98.8899 deg

SMA: 7251.478 km

Apoapsis: 905.974 km

Periapsis: 840.712 km

RAAN: 172.4675 deg

Eccentricy: 0.0044999

Argument of periapsis: 329.9264 deg

Mean anomaly: 29.9321 deg

Mean motion: 14.05927704 rev/day

Mean motion (dot): 0.00000467 rev/day2

B* drag term: 0.00030915 1/REarth

Two-line elements (TLE)

Creation date: May 6, 2025, 3:54 a.m.

Reference frame: TEME

Reference center: EARTH

Epoch: May 5, 2025, 9:20 a.m. UTC

TLE line 0: 0 FENGYUN 1C DEB

TLE line 1: 1 38137U 99025EQJ 25125.38929888 .00000467 00000-0 30915-3 0 9995

TLE line 2: 2 38137 98.8899 172.4675 0044999 329.9264 29.9321 14.05927704605980

Live tracking on map

Real-time ground track for satellite FENGYUN 1C DEB.

In-orbit conjunctions

A list of the most updated potential collisions computed for object FENGYUN 1C DEB.

Target Orbit TCA Probability of collision Miss distance Type
METEOR 1-18 LEO 2025-05-09 09:24:08 0.0001003553 234.0 (m) PAYLOAD
CZ-6A DEB LEO 2025-04-06 05:49:36 0.0002258496 91.0 (m) DEBRIS
COSMOS 2082 LEO 2025-03-25 20:06:18 0.0001482902 180.0 (m) PAYLOAD

Associated space launch

Chinese polar orbiting meteorological satellite

FENGYUN 1C DEB was lifted into orbit during the mission ‘Long March 4B | Feng Yun 1C’, on board a Long March 4B space rocket.

The launch took place on May 10, 1999, 1:33 a.m. from Launch Complex 7.

For more information about the launch, click the button.

Launch to space Long March 4B | Feng Yun 1C
Long March 4B | Feng Yun 1C

Agency: N/A

Status: Launch Successful

Launch date: May 10, 1999, 1:33 a.m. UTC

Rocket: Long March 4B

Launch pad: Launch Complex 7

Location: Taiyuan Satellite Launch Center, People's Republic of China

...

Latest news about this satellite

There are no fresh news available about this satellite. Check back as we update our databases every day.


Newsletter sign-up

Weekly statistics, charts and insights to help you stay on top of the space industry.